Location: Devore Heights
(34.2372°N, 117.4156°W)
Time: 03:24:15
(UTC+00:00)

SR - Pass Details

Date: 20 September 2024
Orbit: 578 x 855 km, 66.7° (Epoch: 02 October)

Event Time Altitude Azimuth Distance (km) Brightness Sun altitude
Rises 18:52:57 0° 194° (SSW) 2,838 ? 54.5°
Reaches altitude 10° 18:55:15 10° 190° (S) 1,915 ? 54.6°
Maximum altitude 18:59:24 53° 113° (ESE) 712 ? 54.9°
Drops below altitude 10° 19:03:31 10° 36° (NE) 1,893 ? 55.2°
Sets 19:05:46 0° 32° (NNE) 2,802 ? 55.3°
